Regional Weather Roundup
Issued by NWS State College, PA

Home | Current Version | Previous Version | Graphics & Text | Print | Product List | Glossary Off
Versions: 1 2 3 4 5 6 7 8 9 10 11 12 13 14 15 16 17 18 19 20 21 22 23 24 25 26 27 28 29 30 31 32 33 34 35 36 37 38 39 40 41 42 43 44 45 46 47 48 49 50

000
ASUS41 KCTP 160803
RWRCTP

REGIONAL WEATHER ROUNDUP
NATIONAL WEATHER SERVICE STATE COLLEGE PA
400 AM EDT TUE SEP 16 2014

Note: "fair" indicates few or no clouds below 12,000 feet with no
significant weather and/or obstructions to visibility.

* = STATION THAT DOES NOT REPORT PRECIPITATION /E.G. RAIN...SNOW...ETC/
    THUNDER OR FOG.

PAZ002>004-007>009-013>016-020>023-029>032-160900-
WESTERN PENNSYLVANIA

CITY           SKY/WX    TMP DP  RH WIND       PRES   REMARKS
ERIE           CLOUDY    55  52  89 S3        30.06S
MEADVILLE      CLOUDY    52  50  93 NW3       30.07R FOG
FRANKLIN*      CLOUDY    52  48  87 CALM      30.07R
NEW CASTLE     CLOUDY    54  54 100 CALM      30.08S FOG
BEAVER COUNTY  NOT AVBL
BUTLER*        CLOUDY    55  52  88 W3        30.07R
PITTSBURGH INT CLOUDY    56  55  97 CALM      30.05S FOG
PITTSBURGH     LGT RAIN  56  53  90 NW6       30.04S FOG
INDIANA*       CLOUDY    55  54  94 CALM      30.08S FOG
LATROBE        RAIN      57  55  94 CALM      30.07R
WASHINGTON CO* CLOUDY    57  54  88 N6        30.06F
$$

PAZ004>006-010>012-017>019-024>028-033>037-041-042-045-046-049>053-160900-
CENTRAL PENNSYLVANIA

CITY           SKY/WX    TMP DP  RH WIND       PRES   REMARKS
BRADFORD       CLOUDY    51  49  92 NW3       30.03S
DUBOIS         CLOUDY    52  52 100 S3        30.02F FOG
CLEARFIELD     LGT RAIN  53  52  96 CALM      30.03F FOG
JOHNSTOWN      LGT RAIN  53  48  83 W9        30.05R
ALTOONA        CLOUDY    55  52  89 CALM      30.04R
STATE COLLEGE  CLOUDY    53  52  95 CALM      30.04R
WILLIAMSPORT   CLOUDY    56  51  84 CALM      30.01F
SELINSGROVE    CLOUDY    55  53  93 CALM      30.02S
FT INDIANTOWN  CLOUDY    55  55 100 CALM      30.01F
CAPITAL CITY   CLOUDY    58  53  84 CALM      30.01F
HARRISBURG     MOCLDY    58  52  80 CALM      30.00F
YORK           CLOUDY    57  54  89 CALM      30.01S
$$

PAZ038>040-043-044-047-048-054-055-060>062-067>071-160900-
EASTERN PENNSYLVANIA

CITY           SKY/WX    TMP DP  RH WIND       PRES   REMARKS
SCRANTON       CLOUDY    56  50  80 CALM      30.02F
MOUNT POCONO   CLOUDY    55  48  77 CALM      30.03F
ALLENTOWN      PTCLDY    51  48  89 NE3       30.02F
QUAKERTOWN*    MOSUNNY   48  48 100 CALM      30.03F
READING        CLOUDY    56  52  86 CALM      30.00F
LANCASTER      CLOUDY    57  53  86 NE3       30.00F
COATESVILLE    MOSUNNY   55  52  88 CALM      30.02F
POTTSTOWN      CLOUDY    54  51  90 NE5       30.03F
BLUE BELL      PTCLDY    54  52  94 CALM      30.02F
DOYLESTOWN     PTCLDY    52  51  97 CALM      30.02F
WILLOW GROVE   NOT AVBL
NORTH PHILA    MOCLDY    60  52  74 SE3       30.04F
PHILADELPHIA   PTCLDY    62  55  77 CALM      30.03F
$$


USA.gov is the U.S. government's official web portal to all federal, state and local government web resources and services.